Temperature
19 20 20 20 20 20 19 19 19 19 19 19 19 19 19 19 19 19 19 19 18 18 18 18 18 18 18 18 18 18 18 18 18 18 17 17 17 17 17 17 17 17 17
20 20 20 20 20 20 19 19 19 19 19 19 19 19 19 19 19 19 19 18 18 18 18 18 18 18 18 18 18 18 18 18 18 17 17 17 17 17 17 17 17 17 17
20 20 20 20 20 20 19 19 19 19 19 19 19 19 19 19 18 18 18 18 18 18 18 18 18 18 18 18 18 18 18 18 17 17 17 17 17 17 17 17 17 17 17
21 20 20 20 20 20 19 19 19 19 19 19 19 19 19 19 18 18 18 18 18 18 18 18 18 18 18 18 18 17 17 17 17 17 17 17 17 17 17 17 17 17 17
21 20 20 20 20 20 19 19 19 19 19 19 19 19 18 18 18 18 18 18 18 18 18 18 18 18 18 18 17 17 17 17 17 17 17 17 17 17 17 17 17 17 17
21 20 20 20 20 20 19 19 19 19 19 19 19 19 18 18 18 18 18 18 18 18 18 18 18 18 18 17 17 17 17 17 17 17 17 17 17 17 17 17 17 17 16
21 21 20 20 20 20 20 19 19 19 19 19 19 19 18 18 18 18 18 18 18 18 18 18 18 18 17 17 17 17 17 17 17 17 17 17 17 17 17 17 17 17 17
21 21 20 20 20 20 20 20 19 19 19 19 19 19 18 18 18 18 18 18 18 18 18 18 18 18 17 17 17 17 17 17 17 17 17 17 17 17 17 17 17 17 17
21 21 21 20 20 20 20 20 19 19 19 19 19 18 18 18 18 18 18 18 18 18 18 18 18 18 17 17 17 17 17 17 17 17 17 17 17 17 17 17 17 17 17
21 21 21 20 20 20 20 19 19 19 19 19 19 18 18 18 18 18 18 18 18 18 18 18 18 18 17 17 17 17 17 17 17 17 17 17 17 17 17 17 17 17 17
20 20 20 20 20 20 20 19 19 19 19 19 19 18 18 18 18 18 18 18 18 18 18 18 18 18 17 17 17 17 17 17 18 17 17 17 17 17 17 17 17 17 17
20 20 20 20 20 20 20 19 19 19 19 19 18 18 18 18 18 18 18 18 18 18 18 18 18 18 18 17 17 17 17 18 18 18 17 17 17 17 17 17 17 17 17
21 20 20 20 20 20 19 19 19 19 19 18 18 18 18 18 18 18 18 18 18 18 18 18 18 18 18 18 17 17 17 17 18 18 18 17 17 17 17 17 17 17 17
21 20 20 20 20 19 19 19 19 19 18 18 18 18 18 18 18 18 18 18 18 18 18 18 18 18 18 18 17 17 17 17 17 17 17 18 17 17 17 17 17 17 17
21 20 20 20 20 19 19 19 19 19 18 18 18 18 18 18 18 18 18 18 18 18 18 18 18 18 18 17 17 17 17 17 17 17 17 18 17 17 17 17 17 17 17
21 20 20 20 19 19 19 19 19 19 18 18 18 18 18 18 18 18 18 18 18 18 18 18 18 18 18 18 17 17 17 17 17 17 17 17 17 17 17 17 17 17 17
21 21 20 20 19 19 19 19 19 18 18 18 18 18 18 18 18 18 18 18 18 18 18 18 18 18 18 18 17 17 17 17 17 17 17 17 17 17 17 17 17 17 17
21 21 20 20 20 19 19 19 19 18 18 18 18 18 18 18 18 18 18 18 18 18 18 18 18 18 18 18 17 17 17 17 17 17 17 17 17 17 17 17 17 17 17
21 21 21 20 20 19 19 19 19 18 18 18 18 18 18 18 18 18 18 18 18 18 18 18 18 18 18 18 17 17 17 17 17 17 17 17 17 17 17 17 17 17 17
21 21 21 20 20 20 19 19 19 19 18 18 18 18 18 18 18 18 18 18 18 18 18 18 18 18 18 18 18 17 17 17 17 17 17 17 17 17 17 17 17 17 17
21 21 21 20 20 20 19 19 19 19 19 18 18 18 18 18 18 18 18 18 18 18 18 18 18 18 18 18 17 17 17 17 17 17 17 17 17 17 17 17 17 17 17
22 21 21 20 20 20 20 19 19 19 19 19 18 18 18 18 18 18 18 18 18 18 18 18 18 18 18 18 18 17 17 17 17 17 17 17 17 17 17 17 17 17 17
22 21 21 21 20 20 20 19 19 18 18 18 18 18 18 18 18 18 18 18 18 18 18 18 18 18 18 18 18 18 17 18 17 17 17 17 17 17 17 17 17 17 17
22 22 21 21 20 20 19 19 19 19 19 19 18 18 18 18 18 18 18 18 18 18 18 18 18 18 18 18 18 18 18 18 17 17 17 17 17 17 17 17 17 17 17
22 22 21 21 20 20 19 19 19 19 19 18 18 18 18 18 18 18 18 18 18 18 18 18 18 18 18 18 18 18 18 18 18 17 17 17 17 17 17 17 17 17 17
22 22 21 21 20 20 19 19 19 19 18 18 18 18 18 18 18 18 18 18 18 18 18 18 18 18 18 18 18 18 18 18 18 18 17 17 17 17 17 17 17 17 17
Wind_Speed
5 10 17 18 18 18 17 17 17 17 17 18 18 18 18 18 18 18 18 17 16 15 15 15 16 16 16 17 17 18 18 19 19 19 19 19 19 19 19 19 18 18 19
10 14 18 18 18 18 17 17 17 16 16 16 17 17 17 17 16 16 16 16 15 15 14 15 15 15 16 17 17 17 18 18 18 18 18 18 18 18 18 18 17 17 18
13 16 18 19 19 18 17 17 16 15 15 15 15 16 16 16 15 15 15 15 15 14 14 14 14 14 15 16 16 16 17 17 17 18 17 16 16 17 18 18 18 18 18
15 16 18 19 19 18 18 17 16 15 15 15 14 14 14 14 14 14 14 14 14 13 13 13 13 14 14 15 15 15 15 15 17 16 14 14 15 16 17 18 18 17 17
14 16 19 20 19 18 18 17 16 15 15 14 14 14 14 14 13 13 13 13 13 13 12 12 13 13 13 13 13 13 13 13 14 13 13 14 14 16 16 17 17 17 16
12 16 19 20 19 18 18 16 15 15 15 14 13 13 13 13 13 13 13 13 12 12 12 12 12 12 12 11 11 11 11 12 13 14 13 13 13 15 16 16 16 16 16
12 15 18 20 19 18 17 16 15 14 14 14 13 13 13 13 13 12 12 12 12 11 11 11 11 11 10 10 10 9 10 11 12 13 13 13 13 15 15 15 15 15 15
14 15 18 19 19 18 17 16 15 14 14 13 13 13 13 13 12 12 12 12 11 11 11 10 10 10 9 8 9 10 10 10 12 12 12 13 14 15 15 15 15 15 15
14 13 14 17 17 17 17 16 15 14 13 13 12 12 12 12 12 11 11 11 11 10 10 10 9 9 8 7 8 9 10 11 12 12 12 12 14 15 15 15 14 14 14
11 10 11 13 14 15 15 15 15 14 13 12 12 11 11 11 11 11 10 10 10 9 9 9 8 7 6 6 6 8 9 11 11 12 12 13 15 15 15 15 14 13 13
11 9 9 11 12 13 13 14 14 13 12 12 11 11 10 9 10 10 10 10 9 9 8 8 7 6 5 4 5 7 8 9 10 11 12 14 15 15 15 14 14 13 13
13 11 9 10 11 12 11 12 11 10 10 10 9 9 8 8 8 8 10 10 9 8 7 6 5 4 3 2 3 6 7 9 10 11 12 15 15 15 14 14 13 13 12
14 13 11 10 11 11 8 10 8 8 9 8 9 9 8 7 7 8 7 7 7 7 5 4 3 2 2 2 3 5 6 8 9 10 13 16 15 14 14 13 13 12 12
13 13 12 10 9 10 10 9 8 7 7 7 9 10 9 6 6 7 6 6 6 6 5 4 3 2 2 2 4 6 7 8 10 11 14 16 15 15 14 13 13 12 12
13 12 12 11 10 9 8 7 8 7 8 9 9 10 11 7 5 6 6 7 7 7 6 5 4 3 2 3 4 6 8 9 11 12 13 15 15 15 14 13 13 13 12
12 12 11 11 10 9 7 5 6 8 9 9 9 10 12 10 8 6 5 5 6 7 7 6 5 4 3 2 2 6 8 10 11 12 12 14 15 14 14 14 13 13 13
12 12 11 11 10 9 8 6 7 8 8 7 9 10 11 11 10 8 5 4 6 8 7 6 4 3 2 1 2 4 7 9 10 12 13 13 13 14 15 14 14 14 13
12 12 12 11 10 9 7 5 5 6 7 7 9 9 10 11 12 9 5 4 7 7 6 3 3 2 2 2 2 2 4 6 9 11 11 12 13 12 13 14 14 14 13
13 12 11 10 10 9 7 5 4 5 5 7 8 8 10 11 12 9 6 6 7 5 4 4 3 3 2 2 3 2 2 3 5 8 9 11 13 13 13 14 15 15 14
12 11 11 10 9 8 6 4 2 2 2 5 7 8 10 10 11 10 6 6 7 4 3 3 3 3 3 3 2 1 1 2 4 5 7 9 11 13 13 13 13 14 15
11 11 11 10 9 8 5 4 3 3 2 2 4 8 9 10 10 9 5 5 5 5 5 5 3 3 2 2 2 1 2 1 2 4 5 5 8 11 12 13 13 13 13
12 11 10 10 10 9 6 5 4 3 2 3 3 5 9 9 9 9 6 5 5 4 5 5 4 3 2 3 3 2 1 3 2 3 3 5 6 8 10 12 13 13 12
11 12 11 11 10 9 7 4 3 2 1 1 2 3 6 9 9 8 8 6 5 5 5 5 5 5 3 2 3 4 3 4 2 2 2 4 4 4 5 8 11 13 13
11 11 10 11 10 8 8 7 7 5 5 5 4 4 4 7 9 9 8 7 6 5 5 6 5 4 5 3 2 3 3 4 3 1 2 2 3 5 5 6 8 11 12
11 11 10 10 9 9 8 8 7 5 4 3 3 4 4 5 7 8 9 7 6 5 6 6 5 5 5 5 4 3 2 2 2 3 2 2 1 2 4 4 5 8 11
9 10 10 10 9 9 9 8 8 7 6 4 4 4 4 4 4 6 7 7 6 5 6 6 6 6 6 5 4 4 4 3 4 4 4 3 2 2 2 2 3 6 9
Wind_Direction
138 134 127 125 120 116 112 110 106 103 101 100 100 100 100 101 103 105 107 108 108 107 108 108 108 108 108 110 113 115 117 118 118 118 117 116 117 116 115 112 109 108 109
142 135 129 127 124 120 116 112 109 107 105 104 103 103 102 103 105 107 108 109 109 109 109 109 110 110 111 112 114 117 120 120 119 117 115 115 117 117 116 115 113 114 112
132 132 130 129 126 124 120 116 114 111 108 107 107 106 105 106 107 108 109 110 110 111 112 113 112 112 114 115 118 120 121 119 117 114 110 108 113 117 117 118 116 115 114
132 131 131 130 128 125 123 120 118 116 113 111 111 110 110 110 110 110 112 112 113 114 115 116 116 117 118 119 121 122 121 121 118 115 111 112 116 119 119 119 118 117 116
129 132 133 131 130 128 126 124 122 120 118 116 115 114 114 114 114 114 114 114 116 117 117 118 120 121 121 121 123 125 124 124 123 117 115 114 119 124 122 122 121 120 120
129 134 136 134 132 131 129 128 127 125 122 121 120 119 117 117 116 117 117 117 119 120 119 119 121 123 123 123 123 126 124 122 120 119 119 120 126 128 127 126 125 124 123
133 135 137 136 136 134 132 132 131 129 127 126 125 123 122 120 120 120 121 121 121 122 123 122 123 125 126 125 123 125 125 121 123 125 125 125 129 130 129 128 127 127 124
138 137 139 139 137 136 135 135 134 132 131 130 128 126 125 125 124 124 125 125 125 125 127 126 126 128 129 127 123 126 125 126 130 133 133 131 132 131 131 131 129 129 128
138 138 139 141 140 139 139 137 136 135 135 134 133 131 130 130 131 131 130 131 131 132 133 131 129 129 126 123 123 130 130 131 133 139 140 139 139 137 135 134 132 132 132
138 141 141 141 142 143 144 143 142 140 139 138 138 136 137 137 137 137 136 136 138 139 138 137 135 132 127 125 125 129 128 128 133 141 144 149 147 144 142 140 139 138 136
147 151 150 147 147 147 149 150 149 146 146 144 144 143 141 138 140 142 145 144 146 146 145 146 144 137 130 125 129 133 126 128 135 142 151 154 152 149 147 146 146 145 143
160 164 164 158 157 156 157 151 153 152 153 153 154 150 151 155 158 155 156 154 154 155 154 157 157 149 131 128 135 134 130 134 138 149 158 160 158 155 153 154 153 151 150
167 167 169 167 164 164 155 157 162 158 161 168 174 172 169 167 167 159 157 158 157 160 161 166 165 167 168 164 150 148 149 144 151 157 164 164 162 161 160 161 160 159 158
167 169 168 166 166 168 161 168 169 164 168 175 185 183 170 157 156 158 164 169 169 171 174 180 184 213 217 200 164 161 164 155 158 163 169 168 168 168 169 170 168 168 168
166 166 167 164 165 165 162 172 171 173 177 182 184 182 173 162 164 167 171 176 184 186 186 188 201 215 213 191 174 164 163 162 163 167 174 176 176 176 177 177 177 176 176
163 161 163 162 161 158 161 168 171 180 181 178 181 182 176 170 169 169 169 175 185 191 191 186 192 191 192 171 156 157 160 163 167 174 179 182 183 183 184 185 184 184 185
162 158 161 161 160 157 159 165 167 173 177 178 180 179 177 175 172 171 168 176 189 191 187 181 188 181 175 163 165 164 165 167 172 180 183 183 187 191 192 193 193 193 195
159 159 165 165 161 160 160 158 159 163 166 177 178 175 179 181 177 171 169 182 193 184 176 169 173 163 177 179 187 178 164 171 181 183 184 188 191 195 199 200 198 198 201
162 162 164 161 164 166 161 155 154 154 161 173 176 178 183 183 181 174 176 190 188 178 175 181 172 166 177 187 196 194 172 176 185 188 190 195 197 197 201 205 205 204 206
164 163 162 163 167 163 152 141 137 146 159 169 177 185 187 186 181 176 179 188 176 167 177 174 172 172 174 179 189 194 200 193 189 192 199 200 203 205 205 208 209 211 212
163 164 164 163 170 163 159 162 162 177 184 186 191 191 188 185 183 178 179 178 173 174 181 174 159 161 179 150 103 23 342 287 216 211 200 193 203 209 208 210 211 212 216
172 170 168 169 175 175 173 167 163 167 187 195 203 196 196 192 192 190 180 179 178 175 180 176 160 157 186 160 141 125 336 333 302 237 206 199 201 203 208 214 213 213 215
176 176 178 176 177 177 167 150 143 132 124 190 212 215 210 197 198 195 190 183 184 180 187 192 177 168 188 208 171 156 168 221 271 302 239 215 201 195 202 209 210 212 213
182 177 172 174 175 175 170 170 172 183 199 208 200 213 223 209 204 198 194 191 190 189 190 201 189 179 172 199 216 204 188 169 172 258 302 256 215 206 206 210 210 210 208
177 174 173 174 178 179 180 183 183 193 203 198 193 212 228 226 213 205 199 193 193 193 196 203 193 188 183 190 194 190 195 190 174 175 239 270 265 228 210 203 201 201 204
172 172 174 175 184 184 183 184 186 191 194 191 200 211 224 227 223 214 203 197 196 196 198 204 201 197 198 198 196 187 180 182 195 183 207 227 233 257 219 196 196 196 201
Height
1545 1546 1547 1547 1548 1549 1550 1551 1552 1552 1553 1554 1555 1555 1556 1557 1557 1558 1559 1560 1561 1562 1563 1563 1564 1565 1565 1566 1566 1567 1568 1569 1570 1570 1571 1572 1573 1574 1574 1575 1576 1577 1577
1545 1547 1548 1549 1550 1551 1552 1552 1553 1554 1555 1555 1556 1557 1558 1558 1559 1560 1561 1562 1563 1563 1564 1565 1566 1566 1567 1567 1568 1569 1570 1571 1571 1572 1573 1574 1575 1576 1576 1577 1578 1578 1579
1545 1547 1549 1550 1551 1552 1553 1554 1555 1556 1556 1557 1558 1558 1559 1560 1561 1562 1562 1563 1564 1565 1566 1566 1567 1568 1569 1569 1570 1571 1571 1572 1573 1574 1575 1576 1577 1578 1578 1579 1580 1580 1581
1546 1548 1550 1551 1552 1553 1554 1555 1556 1557 1558 1558 1559 1560 1560 1561 1562 1563 1564 1564 1565 1566 1567 1568 1569 1569 1570 1571 1572 1572 1573 1574 1575 1576 1577 1578 1578 1579 1580 1581 1581 1582 1583
1548 1549 1551 1552 1554 1555 1556 1557 1557 1558 1559 1560 1560 1561 1562 1563 1563 1564 1565 1566 1567 1567 1568 1569 1570 1571 1572 1573 1573 1574 1575 1576 1577 1578 1579 1579 1580 1581 1582 1583 1583 1584 1585
1549 1551 1552 1553 1555 1556 1557 1558 1559 1559 1560 1561 1562 1562 1563 1564 1564 1565 1566 1567 1568 1569 1570 1571 1572 1572 1573 1574 1575 1576 1577 1578 1578 1579 1580 1581 1582 1583 1583 1584 1585 1586 1586
1549 1551 1553 1554 1556 1557 1558 1559 1560 1560 1561 1562 1563 1563 1564 1565 1566 1566 1567 1568 1569 1570 1571 1572 1573 1574 1575 1576 1577 1578 1579 1579 1580 1581 1582 1583 1583 1584 1585 1586 1586 1587 1588
1550 1552 1554 1555 1557 1558 1559 1560 1561 1561 1562 1563 1564 1564 1565 1566 1567 1568 1569 1570 1571 1572 1573 1574 1575 1576 1577 1578 1579 1580 1580 1580 1581 1582 1583 1584 1585 1586 1586 1587 1588 1589 1589
1551 1553 1554 1556 1557 1559 1560 1561 1562 1562 1563 1564 1565 1566 1566 1567 1568 1569 1570 1571 1572 1573 1574 1575 1576 1578 1578 1580 1581 1581 1582 1582 1583 1584 1585 1586 1586 1587 1588 1588 1589 1590 1591
1553 1554 1555 1557 1558 1559 1560 1562 1563 1563 1564 1565 1566 1567 1568 1569 1570 1571 1572 1573 1574 1575 1576 1577 1578 1579 1580 1581 1582 1583 1584 1584 1585 1586 1586 1587 1588 1588 1589 1590 1590 1591 1592
1553 1555 1556 1557 1559 1560 1561 1562 1563 1564 1565 1566 1567 1568 1569 1570 1571 1572 1573 1574 1575 1576 1577 1579 1580 1581 1582 1583 1584 1584 1585 1585 1586 1587 1587 1588 1589 1590 1590 1591 1592 1592 1593
1553 1555 1557 1558 1559 1560 1562 1563 1564 1565 1566 1567 1568 1569 1570 1571 1572 1573 1574 1575 1576 1577 1579 1580 1581 1582 1583 1584 1585 1585 1586 1587 1587 1588 1588 1589 1590 1590 1591 1592 1593 1593 1594
1553 1554 1556 1558 1559 1561 1562 1563 1564 1565 1566 1568 1569 1570 1571 1572 1573 1574 1575 1576 1577 1578 1580 1581 1582 1583 1584 1585 1586 1586 1587 1588 1588 1588 1589 1590 1590 1591 1592 1592 1593 1594 1595
1552 1554 1556 1558 1559 1561 1563 1564 1565 1566 1567 1568 1569 1571 1572 1573 1574 1575 1576 1577 1578 1579 1580 1582 1583 1584 1585 1586 1586 1587 1588 1588 1589 1589 1590 1590 1591 1591 1592 1593 1593 1594 1595
1551 1553 1555 1557 1559 1560 1562 1564 1565 1566 1567 1569 1570 1571 1572 1573 1574 1576 1577 1578 1579 1580 1581 1582 1583 1584 1585 1586 1587 1587 1588 1589 1589 1590 1590 1591 1591 1592 1592 1593 1594 1594 1595
1551 1552 1555 1556 1558 1560 1562 1563 1565 1566 1567 1569 1570 1571 1572 1573 1575 1576 1577 1578 1579 1580 1581 1582 1584 1585 1586 1586 1587 1587 1588 1589 1590 1590 1590 1591 1591 1592 1592 1593 1594 1594 1595
1550 1552 1554 1556 1558 1559 1561 1563 1564 1566 1567 1568 1570 1571 1572 1573 1575 1576 1577 1578 1579 1580 1581 1582 1583 1584 1585 1586 1587 1588 1588 1589 1589 1590 1590 1591 1591 1592 1592 1593 1593 1594 1594
1549 1551 1553 1555 1557 1559 1561 1562 1564 1565 1567 1568 1569 1570 1572 1573 1574 1576 1577 1578 1579 1580 1581 1582 1583 1584 1585 1585 1586 1587 1588 1588 1589 1589 1590 1590 1591 1591 1592 1592 1593 1593 1594
1548 1550 1552 1554 1556 1558 1560 1561 1563 1564 1566 1567 1568 1570 1571 1572 1574 1575 1576 1577 1578 1579 1580 1582 1582 1583 1584 1585 1585 1586 1587 1587 1588 1588 1589 1589 1590 1590 1591 1591 1592 1592 1593
1547 1549 1551 1552 1555 1556 1558 1560 1562 1563 1565 1566 1567 1568 1570 1571 1573 1574 1575 1577 1577 1578 1580 1581 1582 1582 1583 1584 1585 1585 1586 1586 1587 1587 1587 1588 1589 1589 1590 1590 1590 1591 1591
1546 1547 1549 1551 1553 1554 1556 1558 1560 1561 1563 1564 1566 1567 1569 1570 1571 1573 1574 1575 1576 1577 1578 1579 1581 1581 1582 1583 1584 1584 1584 1585 1585 1585 1586 1586 1587 1587 1588 1588 1589 1589 1590
1543 1545 1547 1548 1550 1552 1554 1556 1558 1560 1562 1563 1564 1565 1567 1568 1570 1571 1572 1573 1574 1576 1577 1578 1579 1580 1581 1582 1582 1583 1583 1584 1583 1583 1584 1584 1585 1585 1586 1587 1587 1588 1588
1541 1543 1545 1547 1548 1550 1552 1554 1556 1557 1559 1560 1562 1563 1565 1566 1567 1569 1570 1572 1573 1574 1575 1576 1577 1578 1579 1580 1581 1582 1581 1581 1581 1582 1581 1582 1583 1583 1584 1584 1585 1585 1586
1540 1542 1544 1545 1547 1548 1550 1551 1553 1554 1555 1557 1559 1560 1562 1563 1565 1566 1568 1569 1570 1571 1572 1574 1575 1576 1577 1577 1578 1579 1580 1580 1580 1579 1580 1580 1580 1581 1581 1582 1582 1583 1583
1538 1540 1542 1544 1545 1546 1548 1549 1551 1552 1553 1555 1556 1557 1559 1560 1562 1563 1565 1566 1567 1569 1570 1571 1572 1573 1574 1575 1575 1576 1577 1577 1577 1577 1577 1578 1578 1578 1579 1579 1580 1580 1580
1537 1539 1541 1542 1543 1545 1546 1547 1548 1550 1551 1552 1553 1554 1555 1557 1558 1559 1561 1563 1564 1565 1566 1568 1569 1570 1571 1572 1572 1573 1573 1574 1574 1575 1574 1574 1575 1576 1576 1576 1577 1577 1578